User: anonymous   Login
Location: ??????
(55.6130°N, 37.7882°E)
Time: 17:49:25
(UTC+00:00)
Language:

Meteor 1-27 Rocket - Orbit

View from above orbital plane
View from above orbital plane
View from above satellite
View from above satellite

Ground track
Ground track

The orbit data is extracted from the following two-line orbital elements,

1 09904U 77024B   24170.74790305  .00000107  00000-0  56367-4 0  9990
2 09904  81.2602 177.3327 0054838 322.6284  37.1075 14.07106026422332
Epoch (UTC): 18 June 2024 17:56:58
Eccentricity: 0.0054838
inclination: 81.2602°
perigee height: 829 km
apogee height: 909 km
right ascension of ascending node: 177.3327°
argument of perigee: 322.6284°
revolutions per day: 14.07106026
mean anomaly at epoch: 37.1075°
orbit number at epoch: 42233

The dashed part of the orbit path shows where the satellite is in the earth's shadow,  

DLR